Location: Bruchhof
(51.8738°N, 9.9256°E)
Time: 05:59:16
(UTC+00:00)

Cosmos 1603 - Visible Passes

Search period start: 15 December 2025 00:00
Search period end: 25 December 2025 00:00
Orbit: 830 x 858 km, 71.0° (Epoch: 14 December)

Date Brightness Start Highest point End Pass type
(mag) Time Alt. Az. Time Alt. Az. Time Alt. Az.
15 Dec 6.1 03:41:15 11° N 03:41:15 11° N 03:41:40 10° N visible
15 Dec 5.9 05:24:08 10° N 05:26:11 12° NNE 05:28:13 10° NE visible
16 Dec 6.2 03:27:14 10° N 03:27:14 10° N 03:27:18 10° N visible
16 Dec 5.9 05:09:45 10° N 05:11:45 12° NNE 05:13:44 10° NNE visible
17 Dec 5.9 04:55:24 10° N 04:57:20 12° NNE 04:59:15 10° NNE visible
17 Dec 5.3 06:39:01 10° NNW 06:43:37 25° NE 06:48:12 10° E visible
18 Dec 6.0 04:41:03 10° N 04:42:54 11° N 04:44:46 10° NNE visible
18 Dec 5.4 06:24:39 10° NNW 06:29:14 24° NE 06:33:45 10° E visible
19 Dec 6.0 04:27:01 10° N 04:28:28 11° N 04:30:16 10° NNE visible
19 Dec 5.4 06:10:18 10° NNW 06:14:49 24° NE 06:19:17 10° E visible
20 Dec 6.0 04:13:00 11° N 04:14:02 11° N 04:15:47 10° NNE visible
20 Dec 5.5 05:55:56 10° NNW 06:00:25 23° NE 06:04:51 10° E visible
21 Dec 6.1 03:58:59 11° N 03:59:37 11° N 04:01:18 10° NNE visible
21 Dec 5.5 05:41:35 10° NNW 05:46:00 23° NE 05:50:23 10° E visible
22 Dec 6.1 03:44:58 11° N 03:45:10 11° N 03:46:49 10° NNE visible
22 Dec 5.5 05:27:12 10° NNW 05:31:36 22° NE 05:35:56 10° E visible
23 Dec 6.2 03:30:58 11° N 03:30:58 11° N 03:32:19 10° NNE visible
23 Dec 5.6 05:12:51 10° NNW 05:17:10 22° NE 05:21:28 10° E visible
24 Dec 6.3 03:16:58 11° NNE 03:16:58 11° NNE 03:17:50 10° NNE visible
24 Dec 5.6 04:58:50 11° NNW 05:02:46 21° NE 05:07:00 10° E visible
24 Dec 3.9 06:42:12 10° NNW 06:47:52 74° ENE 06:53:26 10° SE visible
